,,,PA_Meas_PMT16A,,PR_Meas_QMR101_102,,RH_Meas_QMH101,,SR_Meas_QMS101,,TA_Meas_QMH101,,GenWind,,GenWind,
date,time,status,PA,status,PR,status,RH,status,SR,status,TA,status,DirAvg,status,SpdAvg,
2011-11-14, 00:00:04,VALID,1012.918,VALID,0.0,VALID,104.0,VALID,154.49,VALID,23.889,VALID,45.0,VALID,0.857,
2011-11-14, 00:01:04,VALID,1012.907,VALID,0.0,VALID,104.0,VALID,166.15,VALID,23.947,VALID,66.0,VALID,0.792,
2011-11-14, 00:02:04,VALID,1012.906,VALID,0.0,VALID,104.0,VALID,173.325,VALID,23.967,VALID,20.0,VALID,0.695,
2011-11-14, 00:03:04,VALID,1012.862,VALID,0.0,VALID,104.0,VALID,176.464,VALID,23.908,VALID,43.0,VALID,1.445,
2011-11-14, 00:04:04,VALID,1012.856,VALID,0.0,VALID,104.0,VALID,176.128,VALID,23.868,VALID,69.0,VALID,1.002,
2011-11-14, 00:05:04,VALID,1012.836,VALID,0.0,VALID,104.0,VALID,175.68,VALID,23.887,VALID,21.0,VALID,0.752,
2011-11-14, 00:06:04,VALID,1012.826,VALID,0.0,VALID,104.0,VALID,172.541,VALID,23.908,VALID,5.0,VALID,0.957,
2011-11-14, 00:07:04,VALID,1012.813,VALID,0.0,VALID,104.0,VALID,168.392,VALID,23.85,VALID,21.0,VALID,1.006,
2011-11-14, 00:08:04,VALID,1012.794,VALID,0.0,VALID,104.0,VALID,169.065,VALID,23.83,VALID,46.0,VALID,0.62,
2011-11-14, 00:09:04,VALID,1012.797,VALID,0.0,VALID,104.0,VALID,168.953,VALID,23.887,VALID,56.0,VALID,0.728,
2011-11-14, 00:10:04,VALID,1012.76,VALID,0.0,VALID,104.0,VALID,166.823,VALID,23.85,VALID,74.0,VALID,1.687,
2011-11-14, 00:11:04,VALID,1012.73,VALID,0.0,VALID,104.0,VALID,169.401,VALID,23.772,VALID,67.0,VALID,0.948,
2011-11-14, 00:12:04,VALID,1012.709,VALID,0.0,VALID,104.0,VALID,172.092,VALID,23.791,VALID,88.0,VALID,1.579,
2011-11-14, 00:13:04,VALID,1012.692,VALID,0.0,VALID,104.0,VALID,174.446,VALID,23.811,VALID,70.0,VALID,0.859,
2011-11-14, 00:14:04,VALID,1012.65,VALID,0.0,VALID,104.0,VALID,175.792,VALID,23.811,VALID,45.0,VALID,0.481,
2011-11-14, 00:15:04,VALID,1012.63,VALID,0.0,VALID,104.0,VALID,177.698,VALID,23.77,VALID,45.0,VALID,0.38,
2011-11-14, 00:16:04,VALID,1012.618,VALID,0.5,VALID,104.0,VALID,180.725,VALID,23.85,VALID,45.0,VALID,0.567,
2011-11-14, 00:17:04,VALID,1012.563,VALID,0.0,VALID,104.0,VALID,183.64,VALID,23.85,VALID,45.0,VALID,0.505,
2011-11-14, 00:18:04,VALID,1012.544,VALID,0.0,VALID,104.0,VALID,186.555,VALID,23.869,VALID,66.0,VALID,0.788,
2011-11-14, 00:19:04,VALID,1012.523,VALID,0.0,VALID,104.0,VALID,188.573,VALID,23.908,VALID,18.0,VALID,0.904,
2011-11-14, 00:20:04,VALID,1012.503,VALID,0.0,VALID,104.0,VALID,190.142,VALID,23.889,VALID,40.0,VALID,0.779,
2011-11-14, 00:21:04,VALID,1012.474,VALID,0.0,VALID,104.0,VALID,191.375,VALID,23.848,VALID,37.0,VALID,1.044,
2011-11-14, 00:22:04,VALID,1012.457,VALID,0.0,VALID,104.0,VALID,192.721,VALID,23.83,VALID,50.0,VALID,0.966,
2011-11-14, 00:23:04,VALID,1012.42,VALID,0.0,VALID,104.0,VALID,194.29,VALID,23.869,VALID,41.0,VALID,1.035,
2011-11-14, 00:24:04,VALID,1012.398,VALID,0.0,VALID,104.0,VALID,196.42,VALID,23.85,VALID,36.0,VALID,0.722,
2011-11-14, 00:25:04,VALID,1012.364,VALID,0.0,VALID,104.0,VALID,198.775,VALID,23.868,VALID,93.0,VALID,0.797,
2011-11-14, 00:26:04,VALID,1012.335,VALID,0.0,VALID,104.0,VALID,200.905,VALID,23.908,VALID,87.0,VALID,0.904,
2011-11-14, 00:27:04,VALID,1012.311,VALID,0.0,VALID,104.0,VALID,203.147,VALID,23.889,VALID,69.0,VALID,1.166,
2011-11-14, 00:28:04,VALID,1012.273,VALID,0.0,VALID,104.0,VALID,205.614,VALID,23.869,VALID,74.0,VALID,1.334,
2011-11-14, 00:29:04,VALID,1012.289,VALID,0.0,VALID,104.0,VALID,207.856,VALID,23.908,VALID,101.0,VALID,0.944,
2011-11-14, 00:30:04,VALID,1012.244,VALID,0.0,VALID,104.0,VALID,210.21,VALID,23.908,VALID,106.0,VALID,1.065,
2011-11-14, 00:31:04,VALID,1012.197,VALID,0.0,VALID,104.0,VALID,212.677,VALID,23.928,VALID,91.0,VALID,0.85,
2011-11-14, 00:32:04,VALID,1012.208,VALID,0.0,VALID,104.0,VALID,215.031,VALID,23.928,VALID,77.0,VALID,1.248,
2011-11-14, 00:33:04,VALID,1012.191,VALID,0.0,VALID,104.0,VALID,217.161,VALID,23.928,VALID,74.0,VALID,1.016,
2011-11-14, 00:34:04,VALID,1012.146,VALID,0.0,VALID,104.0,VALID,219.403,VALID,23.928,VALID,94.0,VALID,1.23,
2011-11-14, 00:35:04,VALID,1012.108,VALID,0.0,VALID,104.0,VALID,221.87,VALID,23.947,VALID,80.0,VALID,1.121,
2011-11-14, 00:36:04,VALID,1012.074,VALID,0.0,VALID,104.0,VALID,223.664,VALID,23.986,VALID,36.0,VALID,0.487,
2011-11-14, 00:37:04,VALID,1012.04,VALID,0.0,VALID,104.0,VALID,225.682,VALID,24.025,VALID,51.0,VALID,0.519,
2011-11-14, 00:38:04,VALID,1012.045,VALID,0.0,VALID,104.0,VALID,227.475,VALID,24.064,VALID,71.0,VALID,0.638,
2011-11-14, 00:39:04,VALID,1012.009,VALID,0.0,VALID,104.0,VALID,228.484,VALID,24.084,VALID,69.0,VALID,1.145,
2011-11-14, 00:40:04,VALID,1011.993,VALID,0.0,VALID,104.0,VALID,229.606,VALID,24.084,VALID,79.0,VALID,1.103,
2011-11-14, 00:41:04,VALID,1012.013,VALID,0.0,VALID,104.0,VALID,230.727,VALID,24.062,VALID,64.0,VALID,1.264,
2011-11-14, 00:42:04,VALID,1011.984,VALID,0.0,VALID,104.0,VALID,232.408,VALID,24.045,VALID,72.0,VALID,1.695,
2011-11-14, 00:43:04,VALID,1011.957,VALID,0.0,VALID,104.0,VALID,234.987,VALID,24.006,VALID,88.0,VALID,1.702,
2011-11-14, 00:44:04,VALID,1011.952,VALID,0.0,VALID,104.0,VALID,238.126,VALID,24.006,VALID,89.0,VALID,1.413,
2011-11-14, 00:45:04,VALID,1011.949,VALID,0.0,VALID,104.0,VALID,240.48,VALID,24.045,VALID,59.0,VALID,1.002,
2011-11-14, 00:46:04,VALID,1011.953,VALID,0.0,VALID,104.0,VALID,240.032,VALID,24.084,VALID,54.0,VALID,0.509,
2011-11-14, 00:47:04,VALID,1011.905,VALID,0.0,VALID,104.0,VALID,237.902,VALID,24.121,VALID,24.0,VALID,0.93,
2011-11-14, 00:48:04,VALID,1011.896,VALID,0.0,VALID,104.0,VALID,235.211,VALID,24.125,VALID,24.0,VALID,0.955,
2011-11-14, 00:49:04,VALID,1011.845,VALID,0.0,VALID,104.0,VALID,226.466,VALID,24.142,VALID,30.0,VALID,1.099,
2011-11-14, 00:50:04,VALID,1011.851,VALID,0.0,VALID,104.0,VALID,223.552,VALID,24.162,VALID,33.0,VALID,1.627,
2011-11-14, 00:51:04,VALID,1011.828,VALID,0.0,VALID,104.0,VALID,218.731,VALID,24.103,VALID,37.0,VALID,1.192,
2011-11-14, 00:52:04,VALID,1011.784,VALID,0.0,VALID,104.0,VALID,216.152,VALID,24.142,VALID,71.0,VALID,1.304,
2011-11-14, 00:53:04,VALID,1011.773,VALID,0.0,VALID,104.0,VALID,222.767,VALID,24.179,VALID,77.0,VALID,0.668,
2011-11-14, 00:54:04,VALID,1011.771,VALID,0.0,VALID,104.0,VALID,226.579,VALID,24.183,VALID,70.0,VALID,1.795,
2011-11-14, 00:55:04,VALID,1011.758,VALID,0.0,VALID,104.0,VALID,228.709,VALID,24.142,VALID,81.0,VALID,1.9,
2011-11-14, 00:56:04,VALID,1011.758,VALID,0.0,VALID,104.0,VALID,241.602,VALID,24.162,VALID,81.0,VALID,1.228,
2011-11-14, 00:57:04,VALID,1011.709,VALID,0.0,VALID,104.0,VALID,251.58,VALID,24.123,VALID,38.0,VALID,0.848,
2011-11-14, 00:58:04,VALID,1011.672,VALID,0.0,VALID,104.0,VALID,256.064,VALID,24.162,VALID,81.0,VALID,1.611,
2011-11-14, 00:59:04,VALID,1011.685,VALID,0.0,VALID,104.0,VALID,255.391,VALID,24.162,VALID,58.0,VALID,0.989,
2011-11-14, 01:00:04,VALID,1011.667,VALID,0.0,VALID,104.0,VALID,254.607,VALID,24.22,VALID,89.0,VALID,1.284,
2011-11-14, 01:01:04,VALID,1011.646,VALID,0.0,VALID,104.0,VALID,256.737,VALID,24.279,VALID,83.0,VALID,1.181,
2011-11-14, 01:02:04,VALID,1011.644,VALID,0.0,VALID,104.0,VALID,258.194,VALID,24.337,VALID,59.0,VALID,0.852,
2011-11-14, 01:03:04,VALID,1011.602,VALID,0.0,VALID,104.0,VALID,255.728,VALID,24.357,VALID,83.0,VALID,1.741,
2011-11-14, 01:04:04,VALID,1011.611,VALID,0.0,VALID,104.0,VALID,265.706,VALID,24.337,VALID,100.0,VALID,1.611,
2011-11-14, 01:05:04,VALID,1011.595,VALID,0.0,VALID,104.0,VALID,271.087,VALID,24.318,VALID,101.0,VALID,1.783,
2011-11-14, 01:06:04,VALID,1011.587,VALID,0.0,VALID,104.0,VALID,274.002,VALID,24.298,VALID,72.0,VALID,2.298,
2011-11-14, 01:07:04,VALID,1011.549,VALID,0.0,VALID,104.0,VALID,282.635,VALID,24.279,VALID,77.0,VALID,2.356,
2011-11-14, 01:08:04,VALID,1011.548,VALID,0.0,VALID,103.405,VALID,288.689,VALID,24.24,VALID,86.0,VALID,1.611,
2011-11-14, 01:09:04,VALID,1011.495,VALID,0.0,VALID,103.222,VALID,291.828,VALID,24.24,VALID,69.0,VALID,1.669,
2011-11-14, 01:10:04,VALID,1011.484,VALID,0.0,VALID,103.52,VALID,296.312,VALID,24.259,VALID,90.0,VALID,1.85,
2011-11-14, 01:11:04,VALID,1011.465,VALID,0.0,VALID,103.542,VALID,298.218,VALID,24.316,VALID,94.0,VALID,2.179,
2011-11-14, 01:12:04,VALID,1011.441,VALID,0.0,VALID,103.321,VALID,292.052,VALID,24.335,VALID,73.0,VALID,1.792,
2011-11-14, 01:13:04,VALID,1011.439,VALID,0.0,VALID,103.672,VALID,294.406,VALID,24.374,VALID,64.0,VALID,1.207,
2011-11-14, 01:14:04,VALID,1011.406,VALID,0.0,VALID,104.0,VALID,301.357,VALID,24.452,VALID,90.0,VALID,1.107,
2011-11-14, 01:15:04,VALID,1011.428,VALID,0.0,VALID,104.0,VALID,304.945,VALID,24.53,VALID,90.0,VALID,1.061,
2011-11-14, 01:16:04,VALID,1011.413,VALID,0.0,VALID,103.741,VALID,307.86,VALID,24.53,VALID,80.0,VALID,1.413,
2011-11-14, 01:17:04,VALID,1011.419,VALID,0.0,VALID,102.704,VALID,310.326,VALID,24.472,VALID,88.0,VALID,1.986,
2011-11-14, 01:18:04,VALID,1011.421,VALID,0.0,VALID,102.765,VALID,313.802,VALID,24.472,VALID,75.0,VALID,2.225,
2011-11-14, 01:19:04,VALID,1011.414,VALID,0.0,VALID,102.925,VALID,316.156,VALID,24.472,VALID,40.0,VALID,1.266,
2011-11-14, 01:20:04,VALID,1011.38,VALID,0.0,VALID,102.765,VALID,317.277,VALID,24.452,VALID,68.0,VALID,1.612,
2011-11-14, 01:21:04,VALID,1011.37,VALID,0.0,VALID,102.963,VALID,317.277,VALID,24.491,VALID,80.0,VALID,1.586,
2011-11-14, 01:22:04,VALID,1011.364,VALID,0.0,VALID,102.49,VALID,317.614,VALID,24.472,VALID,90.0,VALID,1.631,
2011-11-14, 01:23:04,VALID,1011.321,VALID,0.0,VALID,102.376,VALID,318.51,VALID,24.493,VALID,109.0,VALID,0.949,
2011-11-14, 01:24:04,VALID,1011.32,VALID,0.0,VALID,102.871,VALID,319.968,VALID,24.612,VALID,87.0,VALID,1.48,
2011-11-14, 01:25:04,VALID,1011.285,VALID,0.0,VALID,103.115,VALID,320.08,VALID,24.649,VALID,56.0,VALID,1.367,
2011-11-14, 01:26:04,VALID,1011.282,VALID,0.0,VALID,102.46,VALID,321.201,VALID,24.608,VALID,57.0,VALID,1.259,
2011-11-14, 01:27:04,VALID,1011.274,VALID,0.0,VALID,102.864,VALID,322.21,VALID,24.647,VALID,69.0,VALID,1.251,
2011-11-14, 01:28:04,VALID,1011.234,VALID,0.0,VALID,102.513,VALID,323.331,VALID,24.667,VALID,84.0,VALID,1.873,
2011-11-14, 01:29:04,VALID,1011.251,VALID,0.0,VALID,102.467,VALID,323.443,VALID,24.667,VALID,73.0,VALID,1.188,
2011-11-14, 01:30:04,VALID,1011.235,VALID,0.0,VALID,102.841,VALID,322.771,VALID,24.706,VALID,73.0,VALID,1.274,
2011-11-14, 01:31:04,VALID,1011.205,VALID,0.0,VALID,102.338,VALID,319.968,VALID,24.727,VALID,77.0,VALID,1.534,
2011-11-14, 01:32:04,VALID,1011.186,VALID,0.0,VALID,101.24,VALID,315.596,VALID,24.667,VALID,76.0,VALID,1.268,
2011-11-14, 01:33:04,VALID,1011.185,VALID,0.0,VALID,101.621,VALID,309.429,VALID,24.686,VALID,68.0,VALID,1.237,
2011-11-14, 01:34:04,VALID,1011.134,VALID,0.0,VALID,101.438,VALID,300.797,VALID,24.686,VALID,86.0,VALID,1.673,
2011-11-14, 01:35:04,VALID,1011.116,VALID,0.0,VALID,101.285,VALID,288.801,VALID,24.727,VALID,93.0,VALID,0.355,
2011-11-14, 01:36:04,VALID,1011.11,VALID,0.0,VALID,102.803,VALID,283.083,VALID,24.805,VALID,80.0,VALID,0.488,
2011-11-14, 01:37:04,VALID,1011.123,VALID,0.0,VALID,101.468,VALID,287.119,VALID,24.805,VALID,52.0,VALID,0.902,
2011-11-14, 01:38:04,VALID,1011.092,VALID,0.0,VALID,101.758,VALID,291.491,VALID,24.844,VALID,91.0,VALID,1.271,
2011-11-14, 01:39:04,VALID,1011.083,VALID,0.0,VALID,99.882,VALID,289.249,VALID,24.844,VALID,47.0,VALID,1.207,
2011-11-14, 01:40:04,VALID,1011.103,VALID,0.0,VALID,102.391,VALID,288.128,VALID,24.941,VALID,80.0,VALID,1.628,
2011-11-14, 01:41:04,VALID,1011.076,VALID,0.0,VALID,101.674,VALID,298.106,VALID,24.939,VALID,104.0,VALID,1.502,
2011-11-14, 01:42:04,VALID,1011.085,VALID,0.0,VALID,99.966,VALID,306.066,VALID,24.939,VALID,77.0,VALID,1.203,
2011-11-14, 01:43:04,VALID,1011.094,VALID,0.0,VALID,98.845,VALID,307.411,VALID,24.978,VALID,89.0,VALID,1.128,
2011-11-14, 01:44:04,VALID,1011.088,VALID,0.0,VALID,96.649,VALID,297.097,VALID,24.939,VALID,91.0,VALID,1.264,
2011-11-14, 01:45:04,VALID,1011.055,VALID,0.0,VALID,97.038,VALID,277.365,VALID,24.959,VALID,120.0,VALID,1.396,
2011-11-14, 01:46:04,VALID,1011.046,VALID,0.0,VALID,98.273,VALID,263.351,VALID,24.978,VALID,94.0,VALID,1.432,
2011-11-14, 01:47:04,VALID,1011.012,VALID,0.0,VALID,99.219,VALID,264.248,VALID,25.017,VALID,92.0,VALID,1.598,
2011-11-14, 01:48:04,VALID,1011.028,VALID,0.0,VALID,101.613,VALID,271.872,VALID,25.056,VALID,70.0,VALID,1.1,
2011-11-14, 01:49:04,VALID,1011.012,VALID,0.0,VALID,99.554,VALID,282.522,VALID,25.037,VALID,80.0,VALID,1.129,
2011-11-14, 01:50:04,VALID,1011.019,VALID,0.0,VALID,94.163,VALID,292.052,VALID,25.037,VALID,32.0,VALID,0.831,
2011-11-14, 01:51:04,VALID,1010.981,VALID,0.0,VALID,96.023,VALID,293.285,VALID,25.058,VALID,52.0,VALID,0.547,
2011-11-14, 01:52:04,VALID,1010.954,VALID,0.0,VALID,95.543,VALID,290.034,VALID,25.076,VALID,72.0,VALID,1.339,
2011-11-14, 01:53:04,VALID,1010.954,VALID,0.0,VALID,91.921,VALID,282.298,VALID,25.058,VALID,86.0,VALID,1.184,
2011-11-14, 01:54:04,VALID,1010.938,VALID,0.0,VALID,92.333,VALID,273.553,VALID,25.037,VALID,68.0,VALID,1.377,
2011-11-14, 01:55:04,VALID,1010.903,VALID,0.0,VALID,94.552,VALID,269.069,VALID,25.056,VALID,74.0,VALID,0.805,
2011-11-14, 01:56:04,VALID,1010.916,VALID,0.0,VALID,98.212,VALID,267.275,VALID,25.156,VALID,90.0,VALID,1.058,
2011-11-14, 01:57:04,VALID,1010.904,VALID,0.0,VALID,95.345,VALID,265.818,VALID,25.175,VALID,102.0,VALID,0.625,
2011-11-14, 01:58:04,VALID,1010.908,VALID,0.0,VALID,94.521,VALID,263.463,VALID,25.232,VALID,96.0,VALID,1.138,
2011-11-14, 01:59:04,VALID,1010.889,VALID,0.0,VALID,97.19,VALID,260.324,VALID,25.271,VALID,88.0,VALID,0.594,
2011-11-14, 02:00:04,VALID,1010.893,VALID,0.0,VALID,94.46,VALID,257.409,VALID,25.292,VALID,92.0,VALID,1.354,
2011-11-14, 02:01:04,VALID,1010.886,VALID,0.0,VALID,90.548,VALID,255.279,VALID,25.253,VALID,84.0,VALID,0.796,
2011-11-14, 02:02:04,VALID,1010.92,VALID,0.0,VALID,92.47,VALID,252.364,VALID,25.251,VALID,72.0,VALID,1.02,
2011-11-14, 02:03:04,VALID,1010.918,VALID,0.0,VALID,93.621,VALID,249.113,VALID,25.253,VALID,84.0,VALID,1.14,
2011-11-14, 02:04:04,VALID,1010.938,VALID,0.0,VALID,95.917,VALID,245.974,VALID,25.29,VALID,46.0,VALID,1.186,
2011-11-14, 02:05:04,VALID,1010.929,VALID,0.0,VALID,92.981,VALID,242.386,VALID,25.253,VALID,34.0,VALID,0.842,
2011-11-14, 02:06:04,VALID,1010.956,VALID,0.0,VALID,91.524,VALID,237.678,VALID,25.212,VALID,36.0,VALID,0.826,
2011-11-14, 02:07:04,VALID,1010.958,VALID,0.0,VALID,93.011,VALID,233.081,VALID,25.234,VALID,35.0,VALID,1.143,
2011-11-14, 02:08:04,VALID,1010.943,VALID,0.0,VALID,90.518,VALID,232.745,VALID,25.173,VALID,68.0,VALID,0.817,
2011-11-14, 02:09:04,VALID,1010.937,VALID,0.0,VALID,92.668,VALID,234.426,VALID,25.193,VALID,55.0,VALID,0.62,
2011-11-14, 02:10:04,VALID,1010.901,VALID,0.0,VALID,90.624,VALID,238.462,VALID,25.156,VALID,75.0,VALID,1.001,
2011-11-14, 02:11:04,VALID,1010.903,VALID,0.0,VALID,95.459,VALID,241.602,VALID,25.173,VALID,63.0,VALID,0.621,
2011-11-14, 02:12:04,VALID,1010.888,VALID,0.0,VALID,93.019,VALID,243.62,VALID,25.173,VALID,92.0,VALID,0.846,
2011-11-14, 02:13:04,VALID,1010.891,VALID,0.0,VALID,97.549,VALID,244.068,VALID,25.271,VALID,128.0,VALID,0.394,
2011-11-14, 02:14:04,VALID,1010.872,VALID,0.0,VALID,91.341,VALID,243.395,VALID,25.331,VALID,86.0,VALID,0.714,
2011-11-14, 02:15:04,VALID,1010.845,VALID,0.0,VALID,92.401,VALID,243.283,VALID,25.329,VALID,56.0,VALID,1.396,
2011-11-14, 02:16:04,VALID,1010.823,VALID,0.0,VALID,92.096,VALID,243.171,VALID,25.349,VALID,72.0,VALID,1.009,
2011-11-14, 02:17:04,VALID,1010.813,VALID,0.0,VALID,91.113,VALID,243.059,VALID,25.349,VALID,66.0,VALID,1.004,
2011-11-14, 02:18:04,VALID,1010.779,VALID,0.0,VALID,89.847,VALID,243.171,VALID,25.349,VALID,106.0,VALID,1.649,
2011-11-14, 02:19:04,VALID,1010.746,VALID,0.0,VALID,89.145,VALID,242.274,VALID,25.31,VALID,107.0,VALID,1.021,
2011-11-14, 02:20:04,VALID,1010.718,VALID,0.0,VALID,92.813,VALID,241.265,VALID,25.349,VALID,131.0,VALID,0.924,
2011-11-14, 02:21:04,VALID,1010.706,VALID,0.0,VALID,93.057,VALID,240.256,VALID,25.388,VALID,121.0,VALID,0.574,
2011-11-14, 02:22:04,VALID,1010.683,VALID,0.0,VALID,88.451,VALID,238.911,VALID,25.407,VALID,121.0,VALID,0.175,
2011-11-14, 02:23:04,VALID,1010.675,VALID,0.0,VALID,89.9,VALID,237.79,VALID,25.526,VALID,121.0,VALID,0.0,
2011-11-14, 02:24:05,VALID,1010.681,VALID,0.0,VALID,86.949,VALID,236.22,VALID,25.563,VALID,124.0,VALID,0.463,
2011-11-14, 02:25:05,VALID,1010.682,VALID,0.0,VALID,88.565,VALID,234.651,VALID,25.641,VALID,119.0,VALID,0.512,
2011-11-14, 02:26:05,VALID,1010.683,VALID,0.0,VALID,91.151,VALID,233.081,VALID,25.719,VALID,115.0,VALID,0.836,
2011-11-14, 02:27:05,VALID,1010.703,VALID,0.0,VALID,84.196,VALID,231.063,VALID,25.641,VALID,145.0,VALID,1.112,
2011-11-14, 02:28:05,VALID,1010.659,VALID,0.0,VALID,85.729,VALID,229.045,VALID,25.602,VALID,152.0,VALID,1.188,
2011-11-14, 02:29:05,VALID,1010.693,VALID,0.0,VALID,86.385,VALID,226.803,VALID,25.602,VALID,159.0,VALID,0.921,
2011-11-14, 02:30:05,VALID,1010.643,VALID,0.0,VALID,84.646,VALID,224.785,VALID,25.563,VALID,146.0,VALID,0.95,
2011-11-14, 02:31:05,VALID,1010.677,VALID,0.0,VALID,83.548,VALID,222.767,VALID,25.544,VALID,149.0,VALID,0.241,
2011-11-14, 02:32:05,VALID,1010.644,VALID,0.0,VALID,83.952,VALID,220.524,VALID,25.604,VALID,154.0,VALID,0.587,
2011-11-14, 02:33:05,VALID,1010.624,VALID,0.0,VALID,84.348,VALID,218.506,VALID,25.622,VALID,162.0,VALID,0.591,
2011-11-14, 02:34:05,VALID,1010.623,VALID,0.0,VALID,83.708,VALID,216.264,VALID,25.641,VALID,168.0,VALID,0.492,
2011-11-14, 02:35:05,VALID,1010.619,VALID,0.0,VALID,84.379,VALID,214.358,VALID,25.663,VALID,166.0,VALID,0.717,
2011-11-14, 02:36:05,VALID,1010.606,VALID,0.0,VALID,87.673,VALID,212.228,VALID,25.661,VALID,125.0,VALID,0.625,
2011-11-14, 02:37:05,VALID,1010.614,VALID,0.0,VALID,85.119,VALID,209.986,VALID,25.682,VALID,126.0,VALID,0.442,
2011-11-14, 02:38:05,VALID,1010.623,VALID,0.0,VALID,85.637,VALID,207.071,VALID,25.702,VALID,152.0,VALID,0.92,
2011-11-14, 02:39:05,VALID,1010.626,VALID,0.0,VALID,84.585,VALID,204.156,VALID,25.682,VALID,171.0,VALID,0.32,
2011-11-14, 02:40:05,VALID,1010.641,VALID,0.0,VALID,87.025,VALID,201.578,VALID,25.7,VALID,171.0,VALID,0.312,
2011-11-14, 02:41:05,VALID,1010.611,VALID,0.0,VALID,85.782,VALID,198.999,VALID,25.739,VALID,144.0,VALID,0.753,
2011-11-14, 02:42:05,VALID,1010.602,VALID,0.0,VALID,86.354,VALID,196.42,VALID,25.741,VALID,134.0,VALID,0.906,
2011-11-14, 02:43:05,VALID,1010.601,VALID,0.0,VALID,83.594,VALID,193.73,VALID,25.663,VALID,138.0,VALID,1.013,
2011-11-14, 02:44:05,VALID,1010.599,VALID,0.0,VALID,89.793,VALID,191.263,VALID,25.68,VALID,105.0,VALID,0.679,
2011-11-14, 02:45:05,VALID,1010.614,VALID,0.0,VALID,85.004,VALID,189.245,VALID,25.661,VALID,131.0,VALID,0.623,
2011-11-14, 02:46:05,VALID,1010.612,VALID,0.0,VALID,84.981,VALID,187.451,VALID,25.661,VALID,132.0,VALID,0.456,
2011-11-14, 02:47:05,VALID,1010.596,VALID,0.0,VALID,89.801,VALID,185.77,VALID,25.721,VALID,117.0,VALID,0.747,
2011-11-14, 02:48:05,VALID,1010.586,VALID,0.0,VALID,90.342,VALID,184.088,VALID,25.741,VALID,132.0,VALID,1.203,
2011-11-14, 02:49:05,VALID,1010.57,VALID,0.0,VALID,85.95,VALID,182.967,VALID,25.721,VALID,140.0,VALID,0.804,
2011-11-14, 02:50:05,VALID,1010.568,VALID,0.0,VALID,86.141,VALID,181.958,VALID,25.68,VALID,98.0,VALID,1.087,
2011-11-14, 02:51:05,VALID,1010.568,VALID,0.0,VALID,84.455,VALID,181.397,VALID,25.622,VALID,127.0,VALID,1.25,
2011-11-14, 02:52:05,VALID,1010.567,VALID,0.0,VALID,88.047,VALID,181.061,VALID,25.643,VALID,136.0,VALID,0.5,
2011-11-14, 02:53:05,VALID,1010.532,VALID,0.0,VALID,89.778,VALID,181.061,VALID,25.682,VALID,121.0,VALID,0.535,
2011-11-14, 02:54:05,VALID,1010.532,VALID,0.0,VALID,85.889,VALID,181.285,VALID,25.68,VALID,124.0,VALID,0.584,
2011-11-14, 02:55:05,VALID,1010.504,VALID,0.0,VALID,83.655,VALID,181.734,VALID,25.661,VALID,110.0,VALID,1.058,
2011-11-14, 02:56:05,VALID,1010.479,VALID,0.0,VALID,83.677,VALID,182.07,VALID,25.641,VALID,98.0,VALID,0.652,
2011-11-14, 02:57:05,VALID,1010.477,VALID,0.0,VALID,83.883,VALID,182.631,VALID,25.661,VALID,111.0,VALID,0.982,
2011-11-14, 02:58:05,VALID,1010.484,VALID,0.0,VALID,83.395,VALID,182.855,VALID,25.622,VALID,122.0,VALID,0.352,
2011-11-14, 02:59:05,VALID,1010.474,VALID,0.0,VALID,84.524,VALID,182.967,VALID,25.661,VALID,94.0,VALID,0.742,
2011-11-14, 03:00:05,VALID,1010.461,VALID,0.0,VALID,84.31,VALID,182.967,VALID,25.661,VALID,90.0,VALID,0.359,
2011-11-14, 03:01:05,VALID,1010.47,VALID,0.0,VALID,83.54,VALID,183.191,VALID,25.68,VALID,89.0,VALID,0.782,
2011-11-14, 03:02:05,VALID,1010.466,VALID,0.0,VALID,83.967,VALID,183.079,VALID,25.68,VALID,69.0,VALID,0.732,
2011-11-14, 03:03:05,VALID,1010.452,VALID,0.0,VALID,83.41,VALID,183.079,VALID,25.663,VALID,96.0,VALID,0.566,
2011-11-14, 03:04:05,VALID,1010.457,VALID,0.0,VALID,88.055,VALID,182.967,VALID,25.719,VALID,116.0,VALID,0.439,
2011-11-14, 03:05:05,VALID,1010.475,VALID,0.0,VALID,83.708,VALID,182.743,VALID,25.7,VALID,135.0,VALID,0.989,
2011-11-14, 03:06:05,VALID,1010.45,VALID,0.0,VALID,82.808,VALID,182.518,VALID,25.682,VALID,134.0,VALID,0.643,
2011-11-14, 03:07:05,VALID,1010.446,VALID,0.0,VALID,83.388,VALID,182.518,VALID,25.641,VALID,155.0,VALID,1.057,
2011-11-14, 03:08:05,VALID,1010.439,VALID,0.0,VALID,82.724,VALID,182.518,VALID,25.622,VALID,140.0,VALID,0.627,
2011-11-14, 03:09:05,VALID,1010.435,VALID,0.0,VALID,83.433,VALID,182.518,VALID,25.583,VALID,129.0,VALID,0.763,
2011-11-14, 03:10:05,VALID,1010.432,VALID,0.0,VALID,82.877,VALID,182.182,VALID,25.563,VALID,123.0,VALID,0.485,
2011-11-14, 03:11:05,VALID,1010.397,VALID,0.0,VALID,86.819,VALID,182.07,VALID,25.583,VALID,95.0,VALID,0.564,
2011-11-14, 03:12:05,VALID,1010.385,VALID,0.0,VALID,88.329,VALID,182.07,VALID,25.602,VALID,79.0,VALID,0.616,
2011-11-14, 03:13:05,VALID,1010.371,VALID,0.0,VALID,87.856,VALID,181.958,VALID,25.622,VALID,88.0,VALID,0.741,
2011-11-14, 03:14:05,VALID,1010.366,VALID,0.0,VALID,90.274,VALID,181.958,VALID,25.602,VALID,111.0,VALID,0.832,
2011-11-14, 03:15:05,VALID,1010.38,VALID,0.0,VALID,89.793,VALID,181.734,VALID,25.604,VALID,122.0,VALID,0.73,
2011-11-14, 03:16:05,VALID,1010.348,VALID,0.0,VALID,86.407,VALID,181.622,VALID,25.544,VALID,115.0,VALID,0.725,
2011-11-14, 03:17:05,VALID,1010.31,VALID,0.0,VALID,90.449,VALID,181.397,VALID,25.563,VALID,115.0,VALID,0.655,
2011-11-14, 03:18:05,VALID,1010.317,VALID,0.0,VALID,92.478,VALID,180.949,VALID,25.563,VALID,144.0,VALID,0.954,
2011-11-14, 03:19:05,VALID,1010.327,VALID,0.0,VALID,93.515,VALID,180.725,VALID,25.563,VALID,156.0,VALID,0.471,
2011-11-14, 03:20:05,VALID,1010.312,VALID,0.0,VALID,92.729,VALID,180.5,VALID,25.602,VALID,132.0,VALID,0.61,
2011-11-14, 03:21:05,VALID,1010.317,VALID,0.0,VALID,98.799,VALID,180.276,VALID,25.68,VALID,133.0,VALID,0.456,
2011-11-14, 03:22:05,VALID,1010.326,VALID,0.0,VALID,89.176,VALID,179.94,VALID,25.622,VALID,134.0,VALID,0.707,
2011-11-14, 03:23:05,VALID,1010.311,VALID,0.0,VALID,88.436,VALID,179.94,VALID,25.583,VALID,136.0,VALID,0.689,
2011-11-14, 03:24:05,VALID,1010.268,VALID,0.0,VALID,89.366,VALID,179.379,VALID,25.583,VALID,148.0,VALID,0.775,
2011-11-14, 03:25:05,VALID,1010.259,VALID,0.0,VALID,90.67,VALID,179.043,VALID,25.583,VALID,148.0,VALID,0.722,
2011-11-14, 03:26:05,VALID,1010.236,VALID,0.0,VALID,89.885,VALID,178.595,VALID,25.563,VALID,156.0,VALID,0.929,
2011-11-14, 03:27:05,VALID,1010.23,VALID,0.0,VALID,91.54,VALID,178.258,VALID,25.563,VALID,137.0,VALID,0.892,
2011-11-14, 03:28:05,VALID,1010.234,VALID,0.0,VALID,93.118,VALID,177.922,VALID,25.583,VALID,162.0,VALID,0.694,
2011-11-14, 03:29:05,VALID,1010.21,VALID,0.0,VALID,92.386,VALID,177.473,VALID,25.604,VALID,162.0,VALID,0.876,
2011-11-14, 03:30:05,VALID,1010.199,VALID,0.0,VALID,95.734,VALID,177.025,VALID,25.641,VALID,148.0,VALID,0.487,
2011-11-14, 03:31:05,VALID,1010.162,VALID,0.0,VALID,94.727,VALID,176.689,VALID,25.661,VALID,135.0,VALID,0.841,
2011-11-14, 03:32:05,VALID,1010.133,VALID,0.0,VALID,91.28,VALID,176.128,VALID,25.622,VALID,158.0,VALID,1.127,
2011-11-14, 03:33:05,VALID,1010.126,VALID,0.0,VALID,90.518,VALID,175.568,VALID,25.602,VALID,164.0,VALID,1.26,
2011-11-14, 03:34:05,VALID,1010.11,VALID,0.0,VALID,95.818,VALID,174.895,VALID,25.602,VALID,181.0,VALID,0.939,